FW1419 Weather Reports


Display with metric or nautical units.
time (UTC)temp
F
wind
direction
speed
MPH
gust
MPH
rain 1hr
in
rain 24hr
in
rain mn
in
humidity
%
barometer
mb
20260504032318 58 190 1.0 10.0 0.00 0.01 0.02 67 1014.5
20260504031814 58 242 2.0 7.0 0.00 0.01 0.02 66 1014.4
20260504031325 58 216 0.0 3.0 0.00 0.01 0.02 66 1014.3
20260504030818 58 145 1.0 6.0 0.00 0.01 0.02 66 1014.1
20260504030330 58 164 1.0 8.0 0.00 0.01 0.02 66 1014.1
20260504025821 58 144 2.0 8.0 0.00 0.01 0.02 65 1014.0
20260504025312 59 249 1.0 6.0 0.00 0.01 0.02 65 1013.9
20260504024823 59 186 2.0 10.0 0.00 0.01 0.02 65 1013.9
20260504024314 59 194 2.0 14.0 0.00 0.01 0.02 65 1013.9
20260504023824 59 235 5.0 14.0 0.00 0.01 0.02 65 1013.8
20260504023319 59 168 4.0 11.0 0.00 0.01 0.02 65 1013.7
20260504022842 59 157 4.0 16.0 0.00 0.01 0.02 65 1013.5
20260504022323 60 184 7.0 16.0 0.00 0.01 0.01 64 1013.4
20260504021815 60 222 6.0 15.0 0.00 0.01 0.01 64 1013.2
20260504021326 61 214 6.0 16.0 0.00 0.01 0.01 64 1013.1
20260504020817 61 221 6.0 16.0 0.00 0.01 0.01 63 1013.0
20260504020328 61 181 6.0 14.0 0.00 0.01 0.01 62 1012.8
20260504015819 62 214 6.0 17.0 0.00 0.01 0.01 62 1012.7
20260504015329 62 253 8.0 16.0 0.00 0.01 0.01 61 1012.6
20260504014820 63 250 6.0 14.0 0.00 0.01 0.01 60 1012.5
20260504014316 64 180 5.0 14.0 0.00 0.01 0.01 59 1012.5
20260504013827 64 211 6.0 14.0 0.00 0.01 0.01 58 1012.6
20260504013316 64 206 3.0 12.0 0.00 0.01 0.01 58 1012.5
20260504012827 64 229 6.0 12.0 0.00 0.01 0.01 58 1012.5
20260504012318 65 195 4.0 13.0 0.00 0.01 0.01 57 1012.4
20260504011829 65 198 7.0 13.0 0.00 0.01 0.01 57 1012.4
20260504011320 65 219 6.0 11.0 0.00 0.01 0.01 56 1012.4
20260504010811 66 199 5.0 11.0 0.00 0.01 0.01 55 1012.4
20260504010322 67 188 4.0 12.0 0.00 0.01 0.01 54 1012.3
20260504005818 67 195 3.0 11.0 0.00 0.01 0.01 53 1012.1
20260504005330 68 217 4.0 11.0 0.00 0.01 0.01 54 1012.1
20260504004842 68 217 3.0 13.0 0.00 0.01 0.01 55 1012.1
20260504004313 68 249 5.0 13.0 0.00 0.01 0.01 54 1012.2
20260504003824 68 170 5.0 12.0 0.00 0.01 0.01 54 1012.1
20260504003315 68 250 6.0 12.0 0.00 0.01 0.01 54 1012.1
20260504002846 68 209 7.0 11.0 0.00 0.01 0.01 53 1011.9
20260504002316 69 236 5.0 12.0 0.00 0.01 0.01 53 1011.8
20260504001828 69 321 3.0 14.0 0.00 0.01 0.01 53 1011.7
20260504001322 70 243 3.0 13.0 0.00 0.01 0.01 52 1011.6
20260504000813 70 219 2.0 10.0 0.00 0.01 0.01 53 1011.7
20260504000346 70 224 5.0 10.0 0.00 0.01 0.01 52 1011.8
20260503235815 70 224 4.0 9.0 0.00 0.01 0.01 54 1011.8
20260503235327 69 217 1.0 4.0 0.00 0.01 0.01 56 1011.8
20260503234819 68 255 0.0 6.0 0.00 0.01 0.01 56 1011.9
20260503234329 68 227 3.0 6.0 0.00 0.01 0.01 56 1012.2
20260503233820 68 301 1.0 4.0 0.00 0.01 0.01 56 1012.1
20260503233312 68 252 1.0 6.0 0.00 0.01 0.01 56 1012.2
20260503232824 68 191 1.0 8.0 0.00 0.01 0.01 57 1012.0
20260503232340 69 217 2.0 8.0 0.00 0.01 0.01 55 1012.3
20260503231830 69 266 2.0 7.0 0.00 0.01 0.01 58 1012.4
20260503231321 68 153 1.0 4.0 0.00 0.01 0.01 60 1012.4
20260503230811 67 115 1.0 6.0 0.00 0.01 0.01 60 1012.5
20260503230343 67 94 1.0 7.0 0.00 0.01 0.01 61 1012.5
20260503225831 68 90 3.0 7.0 0.00 0.01 0.01 59 1012.6
20260503225323 68 115 2.0 4.0 0.00 0.01 0.01 60 1012.7
20260503224814 67 195 2.0 5.0 0.00 0.01 0.01 61 1012.7
20260503224325 67 270 1.0 7.0 0.00 0.01 0.01 62 1012.9
20260503223816 67 229 2.0 7.0 0.00 0.01 0.01 62 1012.9
20260503223311 67 147 2.0 7.0 0.00 0.01 0.01 62 1013.0
20260503222823 67 162 2.0 5.0 0.00 0.01 0.01 62 1013.0
20260503222315 67 183 2.0 5.0 0.00 0.01 0.01 63 1013.0
20260503221826 66 233 1.0 7.0 0.00 0.01 0.01 65 1013.1
20260503221317 65 220 4.0 7.0 0.00 0.01 0.01 65 1013.3
20260503220827 65 165 4.0 7.0 0.00 0.01 0.01 66 1013.3
20260503220319 64 143 1.0 8.0 0.00 0.01 0.01 69 1013.3
20260503215830 64 229 5.0 8.0 0.00 0.01 0.01 69 1013.4
20260503215320 64 236 5.0 11.0 0.00 0.01 0.01 69 1013.4
20260503214816 63 219 2.0 11.0 0.00 0.01 0.01 70 1013.7
20260503214326 63 230 3.0 9.0 0.00 0.01 0.01 70 1013.5
20260503213818 63 207 6.0 9.0 0.00 0.01 0.01 72 1013.5
20260503213330 63 204 4.0 10.0 0.00 0.01 0.01 72 1013.5
20260503212820 63 206 4.0 10.0 0.00 0.01 0.01 71 1013.6
20260503212311 63 204 2.0 11.0 0.00 0.01 0.01 72 1013.7
20260503211844 62 232 5.0 11.0 0.00 0.01 0.01 73 1013.6
20260503211313 62 269 2.0 7.0 0.00 0.01 0.01 74 1013.5
20260503210825 62 236 4.0 8.0 0.00 0.01 0.01 73 1013.7
20260503210316 62 217 3.0 8.0 0.00 0.01 0.01 73 1013.8
20260503205812 62 235 2.0 11.0 0.00 0.01 0.01 74 1013.8
20260503205324 62 212 4.0 11.0 0.00 0.01 0.01 74 1013.8
20260503204814 62 217 3.0 9.0 0.00 0.01 0.01 74 1013.8
20260503204326 62 255 3.0 8.0 0.00 0.01 0.01 75 1013.8
20260503203817 61 256 2.0 10.0 0.00 0.01 0.01 75 1013.9
20260503203328 61 257 4.0 10.0 0.00 0.01 0.01 75 1013.9
20260503202839 62 227 5.0 10.0 0.00 0.01 0.01 75 1013.9
20260503202350 62 210 4.0 8.0 0.00 0.01 0.01 74 1013.8
20260503201819 62 239 4.0 8.0 0.00 0.01 0.01 75 1013.8
20260503201330 62 234 3.0 8.0 0.00 0.01 0.01 74 1013.8
20260503200826 62 192 3.0 8.0 0.00 0.01 0.01 74 1013.8
20260503200317 62 145 3.0 7.0 0.00 0.01 0.01 75 1013.9
20260503195828 62 226 4.0 8.0 0.00 0.01 0.01 75 1013.9
20260503195320 62 209 2.0 8.0 0.00 0.01 0.01 75 1014.0
20260503194831 62 236 1.0 7.0 0.00 0.01 0.01 75 1014.1
20260503194322 62 231 4.0 7.0 0.00 0.01 0.01 74 1014.2
20260503193814 62 212 2.0 5.0 0.00 0.01 0.01 75 1014.2
20260503193326 62 210 1.0 7.0 0.00 0.01 0.01 76 1014.3
20260503192821 62 273 2.0 7.0 0.00 0.01 0.01 76 1014.4
20260503192313 62 194 2.0 5.0 0.00 0.01 0.01 76 1014.4
20260503191825 61 217 0.0 5.0 0.00 0.01 0.01 78 1014.4
20260503191315 61 230 1.0 7.0 0.00 0.01 0.01 78 1014.5
20260503190827 61 221 2.0 7.0 0.00 0.01 0.01 78 1014.5
20260503190318 61 217 2.0 9.0 0.00 0.01 0.01 79 1014.5
20260503185850 61 225 3.0 9.0 0.00 0.01 0.01 79 1014.6
20260503185322 61 212 3.0 8.0 0.00 0.01 0.01 79 1014.6
20260503184834 60 253 1.0 8.0 0.00 0.01 0.01 80 1014.6
20260503184324 60 286 4.0 8.0 0.00 0.01 0.01 79 1014.6
20260503183820 60 242 2.0 7.0 0.00 0.01 0.01 80 1014.5
20260503183331 60 238 2.0 7.0 0.00 0.01 0.01 80 1014.6
20260503182822 60 184 3.0 8.0 0.00 0.01 0.01 79 1014.6
20260503182312 60 260 1.0 5.0 0.00 0.01 0.01 80 1014.6
20260503181823 60 282 2.0 5.0 0.00 0.01 0.01 80 1014.5
20260503181315 60 280 2.0 7.0 0.00 0.01 0.01 81 1014.6
20260503180827 60 183 3.0 7.0 0.00 0.01 0.01 81 1014.6
20260503180340 60 243 3.0 8.0 0.00 0.01 0.01 81 1014.6
20260503175829 60 226 2.0 8.0 0.00 0.01 0.01 82 1014.5
20260503175324 60 223 3.0 8.0 0.00 0.01 0.01 83 1014.4
20260503174836 60 284 2.0 8.0 0.00 0.01 0.01 83 1014.5
20260503174326 60 266 1.0 7.0 0.00 0.01 0.01 85 1014.5
20260503173817 60 252 2.0 8.0 0.00 0.01 0.01 85 1014.4
20260503173329 60 270 2.0 9.0 0.00 0.01 0.01 85 1014.3
20260503172840 60 194 2.0 7.0 0.00 0.01 0.01 85 1014.3
20260503172329 59 157 2.0 7.0 0.00 0.01 0.01 86 1014.4
20260503171821 59 222 2.0 5.0 0.00 0.01 0.01 88 1014.2
20260503171312 59 271 1.0 4.0 0.00 0.01 0.01 89 1014.4
20260503170824 58 212 2.0 4.0 0.00 0.01 0.01 90 1014.4
20260503170319 58 230 1.0 3.0 0.00 0.01 0.01 91 1014.3
20260503150825 57 270 0.0 2.0 0.00 0.01 0.01 94 1013.9
20260503150336 56 266 0.0 0.0 0.00 0.01 0.01 94 1013.8
20260503131312 56 226 0.0 1.0 0.01 0.01 0.01 94 1013.1
20260503130826 56 264 0.0 2.0 0.01 0.01 0.01 94 1013.0
20260503130320 56 262 1.0 2.0 0.01 0.01 0.01 94 1012.8
20260503110821 56 265 0.0 1.0 0.00 0.00 0.00 93 1012.5
20260503110335 56 265 0.0 1.0 0.00 0.00 0.00 92 1012.6
20260503090312 58 311 0.0 4.0 0.00 0.00 0.00 89 1013.1
20260503081339 60 277 0.0 0.0 0.00 0.00 0.00 83 1013.4
20260503080812 60 276 0.0 0.0 0.00 0.00 0.00 83 1013.3
20260503080348 60 277 0.0 0.0 0.00 0.00 0.00 83 1013.4
20260503072824 61 272 0.0 0.0 0.00 0.00 0.00 78 1013.4
20260503072322 62 272 0.0 0.0 0.00 0.00 0.00 78 1013.3
20260503071817 62 272 0.0 0.0 0.00 0.00 0.00 78 1013.3
20260503071331 62 272 0.0 0.0 0.00 0.00 0.00 78 1013.3
20260503070825 62 266 0.0 0.0 0.00 0.00 0.00 79 1013.3
20260503070319 62 266 0.0 0.0 0.00 0.00 0.00 78 1013.3
20260503060326 64 268 1.0 4.0 0.00 0.00 0.00 74 1013.0
20260503054829 65 212 0.0 0.0 0.00 0.00 0.00 72 1013.1
20260503054324 65 222 0.0 0.0 0.00 0.00 0.00 71 1013.0
20260503053819 65 188 0.0 0.0 0.00 0.00 0.00 71 1012.9
20260503053336 65 210 0.0 0.0 0.00 0.00 0.00 70 1012.8
20260503052830 66 210 0.0 0.0 0.00 0.00 0.00 69 1012.6
20260503052324 66 210 0.0 0.0 0.00 0.00 0.00 69 1012.7
20260503051823 66 246 0.0 0.0 0.00 0.00 0.00 68 1012.6
20260503051317 66 226 0.0 1.0 0.00 0.00 0.00 67 1012.5
20260503050830 67 214 0.0 3.0 0.00 0.00 0.00 67 1012.4
20260503050325 67 200 0.0 3.0 0.00 0.00 0.00 66 1012.5
20260503045820 67 227 0.0 0.0 0.00 0.00 0.00 66 1012.4
20260503045315 67 239 0.0 0.0 0.00 0.00 0.00 65 1012.4
20260503044831 68 266 0.0 0.0 0.00 0.00 0.00 64 1012.4
20260503044325 68 248 0.0 0.0 0.00 0.00 0.00 63 1012.4
20260503043821 69 207 0.0 0.0 0.00 0.00 0.00 62 1012.3
20260503043320 69 258 0.0 0.0 0.00 0.00 0.00 61 1012.1
20260503042816 69 258 0.0 0.0 0.00 0.00 0.00 60 1012.1
20260503042311 70 258 0.0 0.0 0.00 0.00 0.00 60 1011.9
20260503041826 70 258 0.0 0.0 0.00 0.00 0.00 59 1011.9
20260503041321 70 259 0.0 0.0 0.00 0.00 0.00 58 1011.9
20260503040836 70 258 0.0 0.0 0.00 0.00 0.00 57 1011.9
20260503040330 71 259 0.0 0.0 0.00 0.00 0.00 56 1011.8
20260503035825 71 259 0.0 0.0 0.00 0.00 0.00 55 1011.8
20260503035324 72 259 0.0 0.0 0.00 0.00 0.00 54 1011.7
20260503034819 72 259 0.0 0.0 0.00 0.00 0.00 53 1011.7
20260503034313 72 259 0.0 0.0 0.00 0.00 0.00 53 1011.7
20260503033828 73 259 0.0 0.0 0.00 0.00 0.00 52 1011.7
20260503033323 73 259 0.0 0.0 0.00 0.00 0.00 52 1011.8
20260503032817 73 257 0.0 0.0 0.00 0.00 0.00 52 1011.6